�������l�o���
Date,Time,MP-1(��Sv/h),MP-2(��Sv/h),MP-3(��Sv/h),MP-4(��Sv/h),MP-5(��Sv/h),MP-6(��Sv/h),MP-7(��Sv/h),MP-8(��Sv/h),����,����(m/s),���J
2017/06/04,00:00,0.998,1.584,1.061,1.899,1.291,0.534,0.976,0.902,���k��,7.2,��
2017/06/04,00:10,1.000,1.583,1.062,1.899,1.290,0.535,0.978,0.901,���k��,7.4,��
2017/06/04,00:20,0.997,1.585,1.062,1.898,1.290,0.535,0.976,0.902,���k��,7.7,��
2017/06/04,00:30,0.996,1.585,1.063,1.900,1.292,0.535,0.977,0.902,���k��,8.9,��
2017/06/04,00:40,0.998,1.586,1.064,1.902,1.292,0.535,0.977,0.904,�k��,7.3,��
2017/06/04,00:50,0.998,1.585,1.062,1.899,1.292,0.535,0.976,0.901,���k��,7.5,��
2017/06/04,01:00,0.999,1.586,1.061,1.900,1.291,0.536,0.974,0.901,���k��,7.2,��
2017/06/04,01:10,0.997,1.584,1.062,1.901,1.290,0.536,0.976,0.902,�k��,5.8,��
2017/06/04,01:20,1.000,1.583,1.063,1.903,1.291,0.534,0.975,0.902,���k��,4.2,��
2017/06/04,01:30,0.997,1.583,1.063,1.898,1.290,0.535,0.976,0.902,��,4.1,��
2017/06/04,01:40,0.998,1.585,1.061,1.903,1.288,0.535,0.976,0.900,��,1.9,��
2017/06/04,01:50,0.995,1.585,1.060,1.900,1.293,0.534,0.978,0.901,-,CALM,��
2017/06/04,02:00,0.997,1.585,1.062,1.900,1.289,0.536,0.976,0.902,�k�k��,0.9,��
2017/06/04,02:10,1.000,1.583,1.063,1.900,1.291,0.534,0.976,0.902,�k��,1.7,��
2017/06/04,02:20,0.997,1.585,1.062,1.900,1.289,0.533,0.977,0.903,�k�k��,2.3,��
2017/06/04,02:30,0.997,1.586,1.064,1.901,1.292,0.536,0.977,0.902,�k��,4.5,��
2017/06/04,02:40,0.998,1.584,1.062,1.900,1.288,0.535,0.978,0.902,�k��,4.4,��
2017/06/04,02:50,0.998,1.584,1.062,1.898,1.291,0.533,0.976,0.902,�k��,5.5,��
2017/06/04,03:00,0.998,1.584,1.062,1.900,1.289,0.536,0.978,0.902,�k��,4.9,��
2017/06/04,03:10,0.998,1.584,1.062,1.903,1.289,0.534,0.978,0.902,�k��,5.2,��
2017/06/04,03:20,0.999,1.585,1.063,1.902,1.291,0.535,0.976,0.901,���k��,2.8,��
2017/06/04,03:30,0.997,1.583,1.060,1.902,1.289,0.536,0.978,0.901,���k��,2.5,��
2017/06/04,03:40,0.998,1.584,1.062,1.900,1.292,0.535,0.976,0.903,�k��,2.6,��
2017/06/04,03:50,0.996,1.584,1.060,1.898,1.292,0.535,0.976,0.901,���k��,2.6,��
2017/06/04,04:00,0.998,1.586,1.062,1.901,1.291,0.533,0.977,0.902,���k��,4.7,��
2017/06/04,04:10,0.996,1.582,1.063,1.901,1.290,0.533,0.976,0.902,���k��,4.6,��
2017/06/04,04:20,0.999,1.583,1.060,1.900,1.291,0.533,0.974,0.902,���k��,5.8,��
2017/06/04,04:30,0.998,1.587,1.063,1.902,1.289,0.535,0.975,0.903,���k��,6.4,��
2017/06/04,04:40,0.998,1.583,1.064,1.904,1.290,0.534,0.976,0.901,���k��,5.9,��
2017/06/04,04:50,0.997,1.583,1.063,1.898,1.289,0.536,0.976,0.900,�k��,6.7,��
2017/06/04,05:00,0.998,1.583,1.063,1.898,1.290,0.533,0.977,0.901,�k��,3.2,��
2017/06/04,05:10,0.996,1.586,1.063,1.900,1.289,0.535,0.977,0.902,�k��,2.2,��
2017/06/04,05:20,0.997,1.587,1.063,1.900,1.288,0.535,0.977,0.902,�k�k��,2.6,��
2017/06/04,05:30,0.997,1.585,1.063,1.900,1.290,0.534,0.977,0.900,�k,3.8,��
2017/06/04,05:40,0.997,1.587,1.063,1.899,1.292,0.534,0.978,0.904,�k�k��,1.9,��
2017/06/04,05:50,0.999,1.587,1.064,1.901,1.292,0.535,0.976,0.902,�k��,2.0,��
2017/06/04,06:00,0.998,1.587,1.063,1.901,1.292,0.534,0.977,0.903,�k��,2.6,��
2017/06/04,06:10,0.999,1.589,1.064,1.900,1.290,0.532,0.977,0.902,�k�k��,2.3,��
2017/06/04,06:20,0.999,1.589,1.062,1.902,1.291,0.535,0.977,0.904,�k,1.7,��
2017/06/04,06:30,0.999,1.586,1.065,1.902,1.290,0.533,0.978,0.902,�k�k��,0.8,��
2017/06/04,06:40,0.996,1.585,1.064,1.900,1.292,0.534,0.976,0.904,�k��,1.5,��
2017/06/04,06:50,0.999,1.584,1.064,1.900,1.290,0.535,0.978,0.903,��,3.3,��
2017/06/04,07:00,0.999,1.584,1.063,1.902,1.292,0.534,0.977,0.902,��,2.9,��
2017/06/04,07:10,0.998,1.582,1.064,1.903,1.292,0.531,0.979,0.904,��,5.5,��
2017/06/04,07:20,0.999,1.583,1.066,1.903,1.293,0.531,0.977,0.903,���쐼,4.8,��
2017/06/04,07:30,0.998,1.584,1.066,1.905,1.292,0.532,0.981,0.904,���k��,5.4,��
2017/06/04,07:40,0.999,1.587,1.066,1.904,1.292,0.533,0.978,0.903,���k��,6.8,��
2017/06/04,07:50,1.002,1.589,1.067,1.903,1.291,0.532,0.975,0.902,���k��,8.4,��
2017/06/04,08:00,1.001,1.586,1.066,1.905,1.295,0.533,0.976,0.902,��,7.5,��
2017/06/04,08:10,1.002,1.586,1.067,1.905,1.294,0.534,0.977,0.901,���k��,7.5,��
2017/06/04,08:20,1.002,1.585,1.068,1.906,1.292,0.534,0.978,0.902,��,8.3,��
2017/06/04,08:30,1.000,1.590,1.067,1.909,1.293,0.534,0.978,0.901,��,6.8,��
2017/06/04,08:40,1.001,1.589,1.067,1.905,1.292,0.534,0.977,0.903,��,7.7,��
2017/06/04,08:50,1.002,1.589,1.066,1.909,1.296,0.535,0.977,0.902,��,9.5,��
2017/06/04,09:00,1.003,1.590,1.068,1.908,1.292,0.535,0.978,0.901,��,8.3,��
2017/06/04,09:10,1.005,1.592,1.065,1.908,1.293,0.535,0.978,0.902,��,8.0,��
2017/06/04,09:20,1.001,1.591,1.064,1.909,1.296,0.536,0.978,0.902,��,8.5,��
2017/06/04,09:30,1.005,1.591,1.067,1.911,1.297,0.535,0.978,0.902,��,6.9,��
2017/06/04,09:40,1.007,1.596,1.067,1.911,1.295,0.536,0.979,0.901,��,7.8,��
2017/06/04,09:50,1.005,1.592,1.064,1.911,1.297,0.537,0.980,0.902,��,8.8,��
2017/06/04,10:00,1.004,1.596,1.066,1.912,1.298,0.536,0.979,0.901,��,10.3,��
2017/06/04,10:10,1.009,1.596,1.067,1.910,1.298,0.535,0.979,0.902,��,7.9,��
2017/06/04,10:20,1.005,1.594,1.069,1.911,1.302,0.536,0.980,0.904,��,7.4,��
2017/06/04,10:30,1.006,1.593,1.068,1.914,1.301,0.536,0.979,0.902,��,6.7,��
2017/06/04,10:40,1.007,1.599,1.067,1.915,1.300,0.536,0.980,0.902,��,7.4,��
2017/06/04,10:50,1.007,1.598,1.069,1.913,1.302,0.538,0.979,0.903,��,7.7,��
2017/06/04,11:00,1.007,1.600,1.071,1.911,1.301,0.537,0.983,0.903,��,8.7,��
2017/06/04,11:10,1.008,1.597,1.073,1.915,1.302,0.537,0.981,0.903,��,7.5,��
2017/06/04,11:20,1.005,1.599,1.070,1.909,1.303,0.539,0.980,0.902,���k��,7.4,��
2017/06/04,11:30,1.007,1.600,1.070,1.912,1.303,0.537,0.982,0.904,��,6.4,��
2017/06/04,11:40,1.010,1.601,1.068,1.910,1.302,0.537,0.981,0.903,��,6.5,��
2017/06/04,11:50,1.007,1.600,1.069,1.911,1.303,0.537,0.981,0.903,��,6.1,��
2017/06/04,12:00,1.006,1.597,1.067,1.914,1.302,0.536,0.979,0.904,���k��,4.6,��
2017/06/04,12:10,1.008,1.598,1.069,1.913,1.301,0.537,0.980,0.903,�k,2.6,��
2017/06/04,12:20,1.009,1.600,1.069,1.913,1.301,0.536,0.982,0.903,�k,3.0,��
2017/06/04,12:30,1.009,1.602,1.070,1.914,1.301,0.537,0.982,0.903,�k��,3.4,��
2017/06/04,12:40,1.006,1.599,1.068,1.915,1.302,0.539,0.980,0.902,�k�k��,2.8,��
2017/06/04,12:50,1.007,1.601,1.069,1.916,1.303,0.536,0.981,0.903,�k��,2.6,��
2017/06/04,13:00,1.003,1.599,1.068,1.915,1.304,0.537,0.978,0.901,�k��,1.5,��
2017/06/04,13:10,1.008,1.598,1.070,1.915,1.302,0.538,0.978,0.902,-,CALM,��
2017/06/04,13:20,1.008,1.599,1.070,1.913,1.302,0.536,0.979,0.902,-,CALM,��
2017/06/04,13:30,1.006,1.599,1.069,1.916,1.304,0.536,0.980,0.902,���쐼,1.2,��
2017/06/04,13:40,1.007,1.602,1.069,1.916,1.301,0.536,0.979,0.903,���k��,3.1,��
2017/06/04,13:50,1.006,1.599,1.071,1.917,1.303,0.537,0.981,0.902,���k��,4.2,��
2017/06/04,14:00,1.010,1.598,1.073,1.914,1.305,0.536,0.982,0.903,���k��,4.6,��
2017/06/04,14:10,1.011,1.602,1.072,1.919,1.303,0.535,0.982,0.904,���k��,6.1,��
2017/06/04,14:20,1.008,1.601,1.073,1.915,1.303,0.537,0.981,0.904,���k��,4.4,��
2017/06/04,14:30,1.007,1.601,1.074,1.918,1.306,0.537,0.980,0.903,��,6.0,��
2017/06/04,14:40,1.010,1.602,1.070,1.916,1.303,0.537,0.981,0.903,���k��,7.2,��
2017/06/04,14:50,1.008,1.604,1.072,1.918,1.305,0.537,0.983,0.904,��,7.0,��
2017/06/04,15:00,1.008,1.602,1.076,1.918,1.305,0.535,0.979,0.902,��,7.4,��
2017/06/04,15:10,1.009,1.603,1.076,1.917,1.304,0.536,0.981,0.904,��,8.9,��
2017/06/04,15:20,1.008,1.603,1.072,1.922,1.306,0.535,0.981,0.903,��,9.5,��
2017/06/04,15:30,1.008,1.602,1.073,1.917,1.305,0.537,0.980,0.901,��,8.1,��
2017/06/04,15:40,1.008,1.601,1.069,1.919,1.304,0.536,0.982,0.904,��,8.4,��
2017/06/04,15:50,1.008,1.600,1.073,1.920,1.303,0.536,0.980,0.903,��,10.3,��
2017/06/04,16:00,1.008,1.603,1.071,1.919,1.306,0.536,0.984,0.904,��,7.2,��
2017/06/04,16:10,1.011,1.603,1.074,1.916,1.307,0.536,0.981,0.903,��,6.8,��
2017/06/04,16:20,1.010,1.606,1.073,1.916,1.306,0.537,0.982,0.904,��,5.9,��
2017/06/04,16:30,1.007,1.605,1.071,1.922,1.304,0.536,0.980,0.903,��,6.4,��
2017/06/04,16:40,1.010,1.603,1.072,1.921,1.304,0.535,0.982,0.905,��,6.8,��
2017/06/04,16:50,1.008,1.604,1.073,1.919,1.306,0.538,0.981,0.902,��,6.8,��
2017/06/04,17:00,1.009,1.605,1.073,1.919,1.307,0.536,0.983,0.903,��,6.4,��
2017/06/04,17:10,1.009,1.606,1.074,1.919,1.304,0.537,0.982,0.903,��,7.6,��
2017/06/04,17:20,1.012,1.608,1.073,1.921,1.307,0.537,0.981,0.904,��,8.2,��
2017/06/04,17:30,1.009,1.606,1.074,1.920,1.307,0.538,0.979,0.902,��,7.7,��
2017/06/04,17:40,1.011,1.605,1.072,1.920,1.308,0.536,0.981,0.905,��,6.7,��
2017/06/04,17:50,1.009,1.605,1.074,1.920,1.307,0.536,0.981,0.904,���k��,6.5,��
2017/06/04,18:00,1.010,1.605,1.075,1.920,1.307,0.535,0.979,0.902,��,6.2,��
2017/06/04,18:10,1.010,1.607,1.074,1.923,1.306,0.537,0.981,0.902,��,4.9,��
2017/06/04,18:20,1.009,1.606,1.076,1.923,1.307,0.536,0.980,0.906,��,5.8,��
2017/06/04,18:30,1.011,1.607,1.073,1.921,1.310,0.535,0.980,0.906,��,6.0,��
2017/06/04,18:40,1.012,1.606,1.075,1.924,1.309,0.537,0.982,0.906,��,6.2,��
2017/06/04,18:50,1.010,1.607,1.076,1.922,1.309,0.538,0.980,0.905,��,6.0,��
2017/06/04,19:00,1.013,1.605,1.074,1.920,1.308,0.539,0.981,0.907,��,6.4,��
2017/06/04,19:10,1.010,1.603,1.074,1.920,1.308,0.539,0.978,0.906,��,5.4,��
2017/06/04,19:20,1.010,1.605,1.075,1.921,1.310,0.538,0.982,0.907,��,6.2,��
2017/06/04,19:30,1.009,1.607,1.075,1.921,1.309,0.539,0.979,0.907,��,4.9,��
2017/06/04,19:40,1.011,1.603,1.074,1.921,1.307,0.538,0.981,0.906,��,5.1,��
2017/06/04,19:50,1.008,1.605,1.073,1.921,1.309,0.538,0.983,0.906,���k��,4.0,��
2017/06/04,20:00,1.013,1.603,1.075,1.919,1.310,0.540,0.983,0.907,�k��,3.4,��
2017/06/04,20:10,1.010,1.607,1.072,1.921,1.307,0.537,0.982,0.905,�k��,4.8,��
2017/06/04,20:20,1.008,1.604,1.073,1.921,1.309,0.537,0.981,0.907,�k��,4.8,��
2017/06/04,20:30,1.009,1.605,1.075,1.922,1.309,0.537,0.981,0.905,�k��,5.7,��
2017/06/04,20:40,1.010,1.604,1.074,1.920,1.310,0.537,0.980,0.906,�k��,5.8,��
2017/06/04,20:50,1.010,1.601,1.075,1.917,1.308,0.540,0.979,0.905,�k��,5.3,��
2017/06/04,21:00,1.008,1.606,1.072,1.918,1.309,0.536,0.981,0.906,�k��,5.6,��
2017/06/04,21:10,1.008,1.604,1.074,1.918,1.307,0.538,0.982,0.907,���k��,5.4,��
2017/06/04,21:20,1.008,1.602,1.073,1.916,1.309,0.535,0.979,0.904,���k��,5.3,��
2017/06/04,21:30,1.009,1.602,1.071,1.918,1.308,0.537,0.979,0.905,���k��,5.6,��
2017/06/04,21:40,1.008,1.605,1.074,1.917,1.309,0.537,0.981,0.905,���k��,5.9,��
2017/06/04,21:50,1.010,1.602,1.074,1.915,1.307,0.535,0.980,0.904,���k��,6.4,��
2017/06/04,22:00,1.010,1.604,1.073,1.917,1.308,0.536,0.981,0.903,���k��,6.5,��
2017/06/04,22:10,1.008,1.603,1.072,1.919,1.307,0.537,0.981,0.905,���k��,7.0,��
2017/06/04,22:20,1.007,1.601,1.073,1.923,1.307,0.536,0.980,0.904,��,6.9,��
2017/06/04,22:30,1.007,1.603,1.072,1.916,1.307,0.535,0.980,0.904,��,6.1,��
2017/06/04,22:40,1.008,1.603,1.072,1.918,1.307,0.536,0.980,0.904,��,6.4,��
2017/06/04,22:50,1.006,1.601,1.071,1.918,1.307,0.535,0.979,0.904,���k��,5.8,��
2017/06/04,23:00,1.007,1.603,1.071,1.918,1.308,0.534,0.980,0.905,�k��,2.6,��
2017/06/04,23:10,1.008,1.602,1.073,1.921,1.309,0.534,0.981,0.903,�k,2.2,��
2017/06/04,23:20,1.007,1.605,1.070,1.916,1.307,0.535,0.980,0.905,�k��,2.0,��
2017/06/04,23:30,1.010,1.604,1.074,1.917,1.306,0.537,0.980,0.905,�k�k��,2.8,��
2017/06/04,23:40,1.006,1.602,1.071,1.918,1.308,0.534,0.981,0.905,�k,2.3,��
2017/06/04,23:50,1.007,1.602,1.072,1.918,1.306,0.536,0.983,0.904,�k�k��,5.1,��
